GW1261 Weather Reports


Display with metric or nautical units.
time (UTC)temp
F
wind
direction
speed
MPH
gust
MPH
rain 1hr
in
rain 24hr
in
rain mn
in
humidity
%
barometer
mb
20260507084002 92 65 3.0 5.0 0.00 0.00 0.00 62 971.9
20260507083458 93 163 0.0 0.0 0.00 0.00 0.00 63 972.1
20260507082954 93 178 0.0 0.0 0.00 0.00 0.00 62 972.0
20260507082451 93 193 0.0 0.0 0.00 0.00 0.00 61 972.2
20260507081947 93 158 0.0 2.0 0.00 0.00 0.00 63 972.3
20260507081444 93 82 1.0 2.0 0.00 0.00 0.00 63 972.3
20260507080941 92 152 2.0 6.0 0.00 0.00 0.00 63 972.4
20260507080436 92 51 0.0 5.0 0.00 0.00 0.00 64 972.4
20260507075932 93 165 3.0 6.0 0.00 0.00 0.00 63 972.2
20260507075429 93 82 1.0 6.0 0.00 0.00 0.00 64 972.5
20260507074925 93 170 0.0 0.0 0.00 0.00 0.00 63 972.7
20260507074422 93 54 0.0 5.0 0.00 0.00 0.00 63 972.7
20260507073920 93 168 0.0 0.0 0.00 0.00 0.00 63 972.7
20260507073416 93 203 0.0 0.0 0.00 0.00 0.00 64 972.6
20260507072913 93 177 0.0 2.0 0.00 0.00 0.00 65 972.8
20260507072411 93 36 0.0 0.0 0.00 0.00 0.00 63 972.8
20260507071908 94 198 0.0 0.0 0.00 0.00 0.00 61 972.9
20260507071405 94 50 4.0 5.0 0.00 0.00 0.00 64 973.0
20260507070901 94 253 0.0 0.0 0.00 0.00 0.00 66 973.0
20260507070359 94 350 3.0 8.0 0.00 0.00 0.00 63 972.9
20260507065855 95 305 0.0 0.0 0.00 0.00 0.00 61 973.3
20260507065352 94 155 0.0 5.0 0.00 0.00 0.00 65 973.1
20260507064849 93 233 0.0 1.0 0.00 0.00 0.00 66 973.3
20260507064348 94 262 0.0 0.0 0.00 0.00 0.00 64 973.3
20260507063845 94 247 0.0 0.0 0.00 0.00 0.00 63 973.5
20260507063342 95 263 0.0 0.0 0.00 0.00 0.00 63 973.6
20260507062838 95 242 0.0 0.0 0.00 0.00 0.00 63 973.9
20260507062335 94 247 0.0 0.0 0.00 0.00 0.00 63 973.8
20260507061833 93 239 0.0 0.0 0.00 0.00 0.00 64 974.0
20260507061331 94 183 0.0 0.0 0.00 0.00 0.00 64 974.2
20260507060830 94 204 0.0 0.0 0.00 0.00 0.00 63 974.6
20260507060326 94 204 0.0 0.0 0.00 0.00 0.00 65 974.5
20260507055823 93 197 0.0 0.0 0.00 0.00 0.00 64 974.7
20260507055318 94 223 0.0 0.0 0.00 0.00 0.00 64 974.8
20260507054815 94 218 0.0 0.0 0.00 0.00 0.00 62 975.1
20260507054311 94 199 0.0 0.0 0.00 0.00 0.00 63 975.3
20260507053808 94 240 0.0 0.0 0.00 0.00 0.00 63 975.6
20260507053306 93 188 0.0 0.0 0.00 0.00 0.00 63 975.7
20260507052805 93 44 0.0 1.0 0.00 0.00 0.00 63 975.7
20260507052301 94 209 0.0 0.0 0.00 0.00 0.00 63 975.7
20260507051759 93 237 0.0 0.0 0.00 0.00 0.00 64 975.7
20260507051256 94 257 0.0 0.0 0.00 0.00 0.00 67 975.9
20260507050752 93 247 0.0 0.0 0.00 0.00 0.00 69 976.0
20260507050249 92 120 0.0 0.0 0.00 0.00 0.00 68 976.0
20260507045746 91 243 0.0 1.0 0.00 0.00 0.00 69 975.9
20260507045242 92 18 0.0 0.0 0.00 0.00 0.00 68 976.2
20260507044740 91 154 0.0 0.0 0.00 0.00 0.00 68 976.1
20260507044236 93 212 0.0 0.0 0.00 0.00 0.00 69 976.3
20260507043732 91 210 0.0 0.0 0.00 0.00 0.00 70 976.2
20260507043229 93 171 0.0 0.0 0.00 0.00 0.00 65 976.3
20260507042725 93 238 0.0 0.0 0.00 0.00 0.00 69 976.5
20260507042220 92 251 0.0 0.0 0.00 0.00 0.00 67 976.3
20260507041718 91 260 0.0 0.0 0.00 0.00 0.00 69 976.4
20260507041214 90 252 0.0 0.0 0.00 0.00 0.00 71 976.3
20260507040711 90 230 0.0 0.0 0.00 0.00 0.00 71 976.4
20260507040207 90 159 0.0 1.0 0.00 0.00 0.00 71 976.7
20260507035704 90 163 0.0 0.0 0.00 0.00 0.00 70 976.6
20260507035159 90 135 0.0 1.0 0.00 0.00 0.00 72 976.7
20260507034656 90 167 0.0 3.0 0.00 0.00 0.00 71 976.6
20260507034154 90 181 0.0 1.0 0.00 0.00 0.00 71 976.7
20260507033652 90 240 0.0 0.0 0.00 0.00 0.00 72 976.8
20260507033149 89 198 0.0 0.0 0.00 0.00 0.00 71 976.8
20260507032647 91 240 0.0 0.0 0.00 0.00 0.00 71 976.9
20260507032142 90 224 0.0 0.0 0.00 0.00 0.00 71 977.0
20260507031639 88 227 0.0 0.0 0.00 0.00 0.00 72 977.1
20260507031136 89 222 0.0 0.0 0.00 0.00 0.00 71 977.2
20260507030633 88 214 0.0 0.0 0.00 0.00 0.00 72 977.0
20260507030131 90 210 0.0 0.0 0.00 0.00 0.00 70 976.9
20260507025627 90 221 0.0 0.0 0.00 0.00 0.00 71 977.2
20260507025124 90 224 0.0 0.0 0.00 0.00 0.00 71 977.1
20260507024622 88 200 0.0 0.0 0.00 0.00 0.00 76 977.0
20260507024119 86 196 0.0 0.0 0.00 0.00 0.00 75 977.1
20260507023615 87 163 1.0 1.0 0.00 0.00 0.00 75 977.5
20260507023112 89 194 0.0 0.0 0.00 0.00 0.00 73 977.1
20260507022609 89 211 0.0 0.0 0.00 0.00 0.00 72 977.2
20260507022104 89 223 0.0 0.0 0.00 0.00 0.00 72 977.1
20260507021601 90 197 0.0 0.0 0.00 0.00 0.00 70 977.2
20260507021057 89 219 0.0 0.0 0.00 0.00 0.00 74 976.9
20260507020555 89 203 0.0 1.0 0.00 0.00 0.00 74 977.1
20260507020051 88 196 0.0 0.0 0.00 0.00 0.00 77 977.1
20260507015550 87 230 0.0 0.0 0.00 0.00 0.00 76 977.1
20260507015047 86 229 0.0 0.0 0.00 0.00 0.00 77 977.1
20260507014543 87 231 0.0 0.0 0.00 0.00 0.00 78 977.2
20260507014039 86 208 0.0 0.0 0.00 0.00 0.00 79 977.0
20260507013536 86 34 0.0 0.0 0.00 0.00 0.00 79 977.2
20260507013033 82 231 0.0 0.0 0.00 0.00 0.00 85 977.0
20260507012530 82 231 0.0 0.0 0.00 0.00 0.00 85 977.1
20260507012026 82 231 0.0 0.0 0.00 0.00 0.00 85 977.1
20260507011524 82 231 0.0 0.0 0.00 0.00 0.00 85 977.2
20260507011020 82 248 0.0 0.0 0.00 0.00 0.00 86 977.1
20260507010514 80 223 0.0 0.0 0.00 0.00 0.00 89 977.1
20260507010011 80 219 0.0 0.0 0.00 0.00 0.00 89 977.0
20260507005509 80 225 0.0 1.0 0.00 0.00 0.00 91 976.9
20260507005005 80 213 0.0 0.0 0.00 0.00 0.00 91 977.1
20260507004502 80 219 0.0 0.0 0.00 0.00 0.00 91 977.0
20260507004000 80 278 0.0 1.0 0.00 0.00 0.00 89 977.0
20260507003454 79 211 0.0 0.0 0.00 0.00 0.00 92 977.2
20260507002944 78 214 0.0 0.0 0.00 0.00 0.00 93 977.2
20260507002441 78 213 0.0 0.0 0.00 0.00 0.00 92 977.2
20260507001938 79 209 0.0 0.0 0.00 0.00 0.00 91 977.1
20260507001434 79 208 0.0 0.0 0.00 0.00 0.00 92 977.3
20260507000932 78 214 0.0 0.0 0.00 0.00 0.00 94 977.1
20260507000427 78 219 0.0 0.0 0.00 0.00 0.00 94 977.2
20260506235923 78 214 0.0 0.0 0.00 0.00 0.00 96 977.0
20260506235421 76 211 0.0 0.0 0.00 0.00 0.00 97 977.2
20260506234915 76 212 0.0 0.0 0.00 0.00 0.00 97 977.1
20260506234414 76 228 0.0 0.0 0.00 0.00 0.00 98 977.1
20260506233911 75 220 0.0 0.0 0.00 0.00 0.00 99 977.1
20260506233407 75 219 0.0 0.0 0.00 0.00 0.00 99 977.2
20260506232904 75 219 0.0 0.0 0.00 0.00 0.00 99 977.1
20260506232400 74 213 0.0 0.0 0.00 0.00 0.00 99 976.9
20260506231856 74 213 0.0 0.0 0.00 0.00 0.00 99 976.9
20260506231354 74 213 0.0 0.0 0.00 0.00 0.00 99 977.0
20260506230851 74 213 0.0 0.0 0.00 0.00 0.00 99 976.8
20260506230348 74 213 0.0 0.0 0.00 0.00 0.00 99 976.7
20260506225844 74 212 0.0 0.0 0.00 0.00 0.00 99 976.6
20260506225342 74 212 0.0 0.0 0.00 0.00 0.00 99 976.4
20260506224838 74 212 0.0 0.0 0.00 0.00 0.00 99 976.5
20260506224336 74 215 0.0 0.0 0.00 0.00 0.00 98 976.4
20260506223832 74 215 0.0 0.0 0.00 0.00 0.00 98 976.2
20260506223327 74 215 0.0 0.0 0.00 0.00 0.00 98 976.2
20260506222825 75 215 0.0 0.0 0.00 0.00 0.00 98 976.0
20260506222320 75 215 0.0 0.0 0.00 0.00 0.00 98 975.8
20260506221818 75 215 0.0 0.0 0.00 0.00 0.00 98 975.7
20260506221316 75 215 0.0 0.0 0.00 0.00 0.00 98 975.7
20260506220813 75 215 0.0 0.0 0.00 0.00 0.00 98 975.7
20260506220308 75 215 0.0 0.0 0.00 0.00 0.00 98 975.6
20260506215805 75 215 0.0 0.0 0.00 0.00 0.00 97 975.7
20260506215301 75 215 0.0 0.0 0.00 0.00 0.00 97 975.9
20260506214756 75 215 0.0 0.0 0.00 0.00 0.00 96 975.7
20260506214254 75 215 0.0 0.0 0.00 0.00 0.00 96 975.5
20260506213752 75 215 0.0 0.0 0.00 0.00 0.00 96 975.5
20260506213248 76 215 0.0 0.0 0.00 0.00 0.00 95 975.7
20260506212746 76 215 0.0 0.0 0.00 0.00 0.00 94 975.6
20260506212242 75 215 0.0 0.0 0.00 0.00 0.00 94 975.5
20260506211737 75 215 0.0 0.0 0.00 0.00 0.00 94 975.5
20260506211234 75 215 0.0 0.0 0.00 0.00 0.00 95 975.2
20260506210731 75 215 0.0 0.0 0.00 0.00 0.00 94 975.1
20260506210228 75 205 0.0 0.0 0.00 0.00 0.00 95 975.2
20260506205725 75 207 0.0 0.0 0.00 0.00 0.00 95 975.1
20260506205220 75 208 0.0 0.0 0.00 0.00 0.00 95 974.9
20260506204717 76 215 0.0 0.0 0.00 0.00 0.00 95 974.9
20260506204214 76 215 0.0 0.0 0.00 0.00 0.00 95 974.9
20260506203713 76 197 0.0 0.0 0.00 0.00 0.00 94 974.7
20260506203209 76 174 0.0 0.0 0.00 0.00 0.00 93 974.7
20260506202707 75 167 0.0 0.0 0.00 0.00 0.00 95 974.7
20260506202203 75 199 0.0 0.0 0.00 0.00 0.00 96 974.5
20260506201700 75 188 0.0 0.0 0.00 0.00 0.00 95 974.9
20260506201156 75 219 0.0 0.0 0.00 0.00 0.00 95 974.8
20260506200653 75 216 0.0 0.0 0.00 0.00 0.00 96 974.8
20260506200150 75 218 0.0 0.0 0.00 0.00 0.00 96 974.7
20260506195647 75 218 0.0 0.0 0.00 0.00 0.00 96 974.7
20260506195143 75 211 0.0 0.0 0.00 0.00 0.00 97 974.8
20260506194641 75 218 0.0 0.0 0.00 0.00 0.00 97 975.0
20260506194137 75 216 0.0 1.0 0.00 0.00 0.00 97 975.0
20260506193635 75 218 0.0 0.0 0.00 0.00 0.00 98 974.7
20260506193132 75 217 0.0 0.0 0.00 0.00 0.00 97 974.8
20260506192628 75 216 0.0 0.0 0.00 0.00 0.00 98 974.7
20260506192124 75 215 0.0 0.0 0.00 0.00 0.00 97 974.8
20260506191621 75 200 0.0 0.0 0.00 0.00 0.00 96 974.8
20260506191117 74 137 0.0 0.0 0.00 0.00 0.00 97 974.7
20260506190615 74 155 0.0 0.0 0.00 0.00 0.00 98 974.7
20260506190111 74 204 0.0 0.0 0.00 0.00 0.00 98 974.9
20260506185609 74 218 0.0 0.0 0.00 0.00 0.00 98 975.2
20260506185105 74 218 0.0 0.0 0.00 0.00 0.00 98 974.8
20260506184602 74 216 0.0 0.0 0.00 0.00 0.00 98 975.0
20260506184100 74 241 0.0 0.0 0.00 0.00 0.00 98 974.9
20260506183556 74 214 0.0 0.0 0.00 0.00 0.00 98 975.0
20260506183052 74 213 0.0 0.0 0.00 0.00 0.00 98 975.1
20260506182550 75 213 0.0 0.0 0.00 0.00 0.00 97 975.1
20260506182047 75 213 0.0 0.0 0.00 0.00 0.00 97 974.9
20260506181545 75 213 0.0 0.0 0.00 0.00 0.00 96 975.4
20260506181041 75 213 0.0 0.0 0.00 0.00 0.00 97 975.2
20260506180538 75 213 0.0 0.0 0.00 0.00 0.00 96 975.1
20260506180034 75 213 0.0 0.0 0.00 0.00 0.00 95 975.0
20260506175531 75 213 0.0 0.0 0.00 0.00 0.00 95 975.4
20260506175027 75 213 0.0 0.0 0.00 0.00 0.00 95 975.3
20260506174526 75 211 0.0 0.0 0.00 0.00 0.00 94 975.4
20260506174022 76 185 0.0 0.0 0.00 0.00 0.00 93 975.4
20260506173520 75 184 0.0 0.0 0.00 0.00 0.00 95 975.4
20260506173016 76 214 0.0 0.0 0.00 0.00 0.00 95 975.7
20260506172514 76 213 0.0 0.0 0.00 0.00 0.00 95 975.4
20260506172010 76 212 0.0 0.0 0.00 0.00 0.00 94 975.4
20260506171507 76 216 0.0 0.0 0.00 0.00 0.00 95 975.5
20260506171005 76 216 0.0 0.0 0.00 0.00 0.00 95 975.6
20260506170501 76 217 0.0 0.0 0.00 0.00 0.00 93 975.7
20260506165954 76 205 0.0 0.0 0.00 0.00 0.00 92 975.6
20260506165452 76 216 0.0 0.0 0.00 0.00 0.00 92 975.5
20260506164942 77 215 0.0 0.0 0.00 0.00 0.00 90 975.7
20260506164439 76 201 0.0 0.0 0.00 0.00 0.00 91 975.5
20260506163937 76 208 0.0 0.0 0.00 0.00 0.00 91 975.5
20260506163431 76 208 0.0 0.0 0.00 0.00 0.00 91 975.8
20260506162926 76 156 0.0 0.0 0.00 0.00 0.00 91 975.5
20260506162424 76 212 0.0 0.0 0.00 0.00 0.00 91 975.9
20260506161916 76 223 0.0 0.0 0.00 0.00 0.00 91 975.5
20260506161414 77 230 0.0 0.0 0.00 0.00 0.00 92 976.0
20260506160905 77 225 0.0 0.0 0.00 0.00 0.00 90 975.8
20260506160402 77 219 0.0 0.0 0.00 0.00 0.00 89 975.6
20260506155900 77 219 0.0 0.0 0.00 0.00 0.00 89 975.7
20260506155356 77 219 0.0 0.0 0.00 0.00 0.00 88 975.7
20260506153514 77 219 0.0 0.0 0.00 0.00 0.00 87 975.4
20260506153011 77 219 0.0 0.0 0.00 0.00 0.00 87 975.6
20260506152508 78 219 0.0 0.0 0.00 0.00 0.00 87 975.5
20260506152006 78 219 0.0 0.0 0.00 0.00 0.00 86 975.7
20260506151503 78 219 0.0 0.0 0.00 0.00 0.00 85 975.6
20260506151001 78 216 0.0 0.0 0.00 0.00 0.00 84 975.4
20260506150456 78 215 0.0 0.0 0.00 0.00 0.00 82 975.4
20260506145954 78 215 0.0 0.0 0.00 0.00 0.00 82 975.2
20260506145450 78 215 0.0 0.0 0.00 0.00 0.00 81 975.3
20260506144948 78 215 0.0 0.0 0.00 0.00 0.00 81 975.1
20260506144444 79 202 0.0 0.0 0.00 0.00 0.00 81 975.1
20260506143942 79 202 0.0 0.0 0.00 0.00 0.00 80 975.0
20260506143439 79 194 0.0 0.0 0.00 0.00 0.00 80 974.9
20260506142938 79 204 0.0 0.0 0.00 0.00 0.00 81 974.7
20260506142435 79 204 0.0 0.0 0.00 0.00 0.00 80 974.7
20260506141933 79 210 0.0 0.0 0.00 0.00 0.00 80 974.5
20260506141430 79 210 0.0 0.0 0.00 0.00 0.00 79 974.6
20260506140929 80 210 0.0 0.0 0.00 0.00 0.00 78 974.5
20260506140425 80 210 0.0 0.0 0.00 0.00 0.00 77 974.4
20260506135922 80 209 0.0 0.0 0.00 0.00 0.00 77 974.1
20260506135420 80 202 0.0 0.0 0.00 0.00 0.00 76 974.2
20260506134915 80 202 0.0 0.0 0.00 0.00 0.00 76 974.2
20260506134412 80 192 0.0 0.0 0.00 0.00 0.00 75 974.2
20260506133909 80 173 0.0 0.0 0.00 0.00 0.00 75 974.1
20260506133406 80 187 0.0 0.0 0.00 0.00 0.00 76 974.2
20260506132902 80 199 0.0 0.0 0.00 0.00 0.00 77 974.1
20260506132359 80 181 0.0 1.0 0.00 0.00 0.00 81 974.2
20260506131857 80 30 0.0 0.0 0.00 0.00 0.00 77 974.2
20260506131353 80 209 0.0 0.0 0.00 0.00 0.00 76 974.0
20260506130851 80 206 0.0 0.0 0.00 0.00 0.00 75 973.9
20260506130347 80 205 0.0 0.0 0.00 0.00 0.00 74 974.0
20260506125845 81 206 0.0 0.0 0.00 0.00 0.00 75 973.9
20260506125343 81 205 0.0 0.0 0.00 0.00 0.00 75 973.9
20260506124841 81 205 0.0 0.0 0.00 0.00 0.00 75 973.9
20260506124338 81 209 0.0 0.0 0.00 0.00 0.00 75 973.8
20260506123836 82 216 0.0 0.0 0.00 0.00 0.00 77 974.0
20260506123334 82 205 0.0 0.0 0.00 0.00 0.00 77 974.0
20260506122831 82 222 0.0 0.0 0.00 0.00 0.00 77 973.9
20260506122327 82 214 0.0 0.0 0.00 0.00 0.00 77 973.9
20260506121826 82 216 0.0 0.0 0.00 0.00 0.00 79 973.9
20260506121323 82 220 0.0 0.0 0.00 0.00 0.00 79 974.2
20260506120820 82 210 0.0 0.0 0.00 0.00 0.00 79 973.9
20260506120317 82 212 0.0 0.0 0.00 0.00 0.00 79 973.6
20260506115814 83 212 0.0 0.0 0.00 0.00 0.00 78 973.6
20260506115313 83 213 0.0 0.0 0.00 0.00 0.00 77 973.7
20260506114810 83 213 0.0 0.0 0.00 0.00 0.00 77 973.5
20260506114308 83 212 0.0 0.0 0.00 0.00 0.00 77 973.6
20260506113806 83 211 0.0 0.0 0.00 0.00 0.00 79 973.5
20260506113303 83 212 0.0 0.0 0.00 0.00 0.00 78 973.3
20260506112800 83 201 0.0 0.0 0.00 0.00 0.00 77 973.4
20260506112257 84 208 0.0 0.0 0.00 0.00 0.00 78 973.1
20260506111754 84 159 0.0 0.0 0.00 0.00 0.00 77 973.0
20260506111253 84 139 0.0 2.0 0.00 0.00 0.00 77 973.2
20260506110749 84 55 0.0 5.0 0.00 0.00 0.00 77 973.0
20260506110247 84 136 1.0 5.0 0.00 0.00 0.00 76 973.0
20260506105743 84 94 2.0 6.0 0.00 0.00 0.00 75 972.8
20260506105240 85 33 3.0 5.0 0.00 0.00 0.00 73 972.8
20260506104738 85 88 1.0 5.0 0.00 0.00 0.00 72 972.9
20260506104235 86 100 0.0 5.0 0.00 0.00 0.00 70 972.9
20260506103732 86 86 0.0 6.0 0.00 0.00 0.00 69 972.8
20260506103230 88 45 2.0 5.0 0.00 0.00 0.00 67 972.6
20260506102727 87 344 1.0 2.0 0.00 0.00 0.00 66 972.7
20260506102225 87 55 1.0 3.0 0.00 0.00 0.00 68 972.6
20260506101722 86 156 0.0 2.0 0.00 0.00 0.00 68 972.6
20260506101218 86 132 1.0 7.0 0.00 0.00 0.00 69 972.4
20260506100716 88 76 1.0 8.0 0.00 0.00 0.00 69 972.5
20260506100214 88 76 1.0 5.0 0.00 0.00 0.00 73 972.7
20260506095712 89 33 0.0 1.0 0.00 0.00 0.00 74 972.6
20260506095209 89 225 1.0 1.0 0.00 0.00 0.00 74 972.5
20260506094706 91 263 1.0 1.0 0.00 0.00 0.00 68 972.5
20260506094204 91 214 0.0 0.0 0.00 0.00 0.00 64 972.3
20260506093703 91 205 0.0 0.0 0.00 0.00 0.00 63 972.1
20260506093159 91 205 0.0 0.0 0.00 0.00 0.00 64 972.1
20260506092657 92 201 0.0 0.0 0.00 0.00 0.00 64 972.2
20260506092154 92 220 0.0 0.0 0.00 0.00 0.00 65 972.2
20260506091652 92 198 0.0 0.0 0.00 0.00 0.00 64 972.4
20260506091149 93 209 0.0 0.0 0.00 0.00 0.00 62 972.4
20260506090647 94 209 0.0 0.0 0.00 0.00 0.00 62 972.4
20260506090143 94 209 0.0 0.0 0.00 0.00 0.00 62 972.3
20260506085640 95 216 0.0 0.0 0.00 0.00 0.00 60 972.6
20260506085136 95 216 0.0 0.0 0.00 0.00 0.00 61 972.6
20260506084633 95 214 0.0 0.0 0.00 0.00 0.00 63 972.6
20260506084130 95 221 0.0 0.0 0.00 0.00 0.00 62 972.4